Time,TemperatureF,DewpointF,PressureIn,WindDirection,WindDirectionDegrees,WindSpeedMPH,WindSpeedGustMPH,Humidity,HourlyPrecipIn,Conditions,Clouds,dailyrainin,SoftwareType,DateUTC
2013-04-17 00:03:00,64.0,63.0,30.19,NNE,28,0.0,1.0,95,0.00,,,0.00,,2013-04-17 04:03:00,
2013-04-17 00:13:00,64.0,63.0,30.19,NNE,28,0.0,1.0,95,0.00,,,0.00,,2013-04-17 04:13:00,
2013-04-17 00:22:00,64.0,63.0,30.19,ENE,58,0.0,2.0,95,0.00,,,0.00,,2013-04-17 04:22:00,
2013-04-17 00:33:00,64.0,63.0,30.19,ENE,74,0.0,2.0,95,0.00,,,0.00,,2013-04-17 04:33:00,
2013-04-17 00:42:00,64.0,63.0,30.19,ENE,74,0.0,2.0,95,0.00,,,0.00,,2013-04-17 04:42:00,
2013-04-17 00:52:00,64.0,63.0,30.19,NNE,24,0.0,3.0,95,0.00,,,0.00,,2013-04-17 04:52:00,
2013-04-17 01:02:00,64.0,63.0,30.19,NE,41,0.0,2.0,96,0.00,,,0.00,,2013-04-17 05:02:00,
2013-04-17 01:12:00,64.0,63.0,30.19,NE,41,0.0,2.0,96,0.00,,,0.00,,2013-04-17 05:12:00,
2013-04-17 01:22:00,64.0,63.0,30.19,NNE,32,0.0,1.0,96,0.00,,,0.00,,2013-04-17 05:22:00,
2013-04-17 01:32:00,64.0,63.0,30.19,NE,39,0.0,2.0,96,0.00,,,0.00,,2013-04-17 05:32:00,
2013-04-17 01:42:00,64.0,63.0,30.19,NE,39,0.0,2.0,96,0.00,,,0.00,,2013-04-17 05:42:00,
2013-04-17 01:52:00,64.0,63.0,30.19,NNE,28,0.0,3.0,96,0.00,,,0.00,,2013-04-17 05:52:00,
2013-04-17 02:02:00,64.0,63.0,30.18,NNE,28,0.0,2.0,96,0.00,,,0.00,,2013-04-17 06:02:00,
2013-04-17 02:12:00,64.0,63.0,30.18,NNE,28,0.0,2.0,96,0.00,,,0.00,,2013-04-17 06:12:00,
2013-04-17 02:22:00,64.0,63.0,30.18,NE,41,0.0,1.0,96,0.00,,,0.00,,2013-04-17 06:22:00,
2013-04-17 02:32:00,64.0,63.0,30.17,NE,34,0.0,4.0,96,0.00,,,0.00,,2013-04-17 06:32:00,
2013-04-17 02:42:00,64.0,63.0,30.17,NE,34,0.0,4.0,96,0.00,,,0.00,,2013-04-17 06:42:00,
2013-04-17 02:52:00,64.0,63.0,30.17,NE,48,0.0,4.0,96,0.00,,,0.00,,2013-04-17 06:52:00,
2013-04-17 03:02:00,64.0,63.0,30.17,North,355,1.0,4.0,96,0.00,,,0.00,,2013-04-17 07:02:00,
2013-04-17 03:12:00,64.0,63.0,30.17,North,355,1.0,4.0,96,0.00,,,0.00,,2013-04-17 07:12:00,
2013-04-17 03:22:00,63.0,62.0,30.17,North,355,0.0,0.0,96,0.00,,,0.00,,2013-04-17 07:22:00,
2013-04-17 03:32:00,63.0,62.0,30.17,North,355,0.0,0.0,96,0.00,,,0.00,,2013-04-17 07:32:00,
2013-04-17 03:42:00,63.0,62.0,30.17,North,355,0.0,0.0,96,0.00,,,0.00,,2013-04-17 07:42:00,
2013-04-17 03:52:00,63.0,62.0,30.17,North,355,0.0,2.0,96,0.00,,,0.00,,2013-04-17 07:52:00,
2013-04-17 04:02:00,63.0,62.0,30.16,North,355,0.0,1.0,96,0.00,,,0.00,,2013-04-17 08:02:00,
2013-04-17 04:12:00,63.0,62.0,30.16,North,355,0.0,1.0,96,0.00,,,0.00,,2013-04-17 08:12:00,
2013-04-17 04:22:00,63.0,62.0,30.16,North,355,0.0,1.0,96,0.01,,,0.01,,2013-04-17 08:22:00,
2013-04-17 04:32:00,63.0,62.0,30.16,NNE,13,0.0,2.0,96,0.01,,,0.01,,2013-04-17 08:32:00,
2013-04-17 04:42:00,63.0,62.0,30.16,NNE,13,0.0,2.0,96,0.01,,,0.01,,2013-04-17 08:42:00,
2013-04-17 04:52:00,62.0,61.0,30.16,NNE,13,0.0,1.0,96,0.01,,,0.01,,2013-04-17 08:52:00,
2013-04-17 05:02:00,62.0,61.0,30.16,North,11,0.0,0.0,96,0.01,,,0.01,,2013-04-17 09:02:00,
2013-04-17 05:12:00,62.0,61.0,30.16,North,11,0.0,0.0,96,0.01,,,0.01,,2013-04-17 09:12:00,
2013-04-17 05:22:00,62.0,61.0,30.16,North,11,0.0,1.0,96,0.00,,,0.01,,2013-04-17 09:22:00,
2013-04-17 05:33:00,62.0,61.0,30.16,North,11,0.0,1.0,96,0.00,,,0.01,,2013-04-17 09:33:00,
2013-04-17 05:42:00,62.0,61.0,30.16,North,11,0.0,1.0,96,0.00,,,0.01,,2013-04-17 09:42:00,
2013-04-17 05:53:00,61.0,60.0,30.16,North,11,0.0,1.0,96,0.00,,,0.01,,2013-04-17 09:53:00,
2013-04-17 06:03:00,61.0,60.0,30.16,North,11,0.0,2.0,96,0.00,,,0.01,,2013-04-17 10:03:00,
2013-04-17 06:12:00,61.0,60.0,30.16,North,11,0.0,2.0,96,0.00,,,0.01,,2013-04-17 10:12:00,
2013-04-17 06:23:00,61.0,60.0,30.17,North,11,0.0,2.0,96,0.00,,,0.01,,2013-04-17 10:23:00,
2013-04-17 06:32:00,61.0,60.0,30.17,North,10,0.0,2.0,96,0.00,,,0.01,,2013-04-17 10:32:00,
2013-04-17 06:42:00,61.0,60.0,30.17,North,10,0.0,2.0,96,0.00,,,0.01,,2013-04-17 10:42:00,
2013-04-17 06:53:00,60.0,59.0,30.18,North,10,0.0,1.0,97,0.00,,,0.01,,2013-04-17 10:53:00,
2013-04-17 07:02:00,60.0,59.0,30.19,NW,311,0.0,2.0,97,0.00,,,0.01,,2013-04-17 11:02:00,
2013-04-17 07:12:00,60.0,59.0,30.19,NW,311,0.0,2.0,97,0.00,,,0.01,,2013-04-17 11:12:00,
2013-04-17 07:22:00,60.0,59.0,30.19,NW,311,0.0,2.0,97,0.00,,,0.01,,2013-04-17 11:22:00,
2013-04-17 07:32:00,60.0,59.0,30.20,WNW,292,0.0,2.0,97,0.00,,,0.01,,2013-04-17 11:32:00,
2013-04-17 07:42:00,60.0,59.0,30.20,WNW,292,0.0,2.0,97,0.00,,,0.01,,2013-04-17 11:42:00,
2013-04-17 07:52:00,61.0,60.0,30.20,WNW,290,0.0,2.0,97,0.00,,,0.01,,2013-04-17 11:52:00,
2013-04-17 08:02:00,61.0,60.0,30.21,WNW,290,0.0,3.0,97,0.00,,,0.01,,2013-04-17 12:02:00,
2013-04-17 08:12:00,61.0,60.0,30.21,WNW,290,0.0,3.0,97,0.00,,,0.01,,2013-04-17 12:12:00,
2013-04-17 08:22:00,62.0,61.0,30.21,WNW,290,0.0,2.0,97,0.00,,,0.01,,2013-04-17 12:22:00,
2013-04-17 08:32:00,63.0,62.0,30.21,WNW,290,0.0,3.0,98,0.00,,,0.01,,2013-04-17 12:32:00,
2013-04-17 08:42:00,63.0,62.0,30.21,WNW,290,0.0,3.0,98,0.00,,,0.01,,2013-04-17 12:42:00,
2013-04-17 08:52:00,65.0,64.0,30.21,WNW,290,0.0,1.0,98,0.00,,,0.01,,2013-04-17 12:52:00,
2013-04-17 09:02:00,66.0,65.0,30.21,WNW,290,0.0,1.0,98,0.00,,,0.01,,2013-04-17 13:02:00,
2013-04-17 09:12:00,66.0,65.0,30.21,WNW,290,0.0,1.0,98,0.00,,,0.01,,2013-04-17 13:12:00,
2013-04-17 09:22:00,68.0,67.0,30.21,WNW,290,0.0,1.0,96,0.00,,,0.01,,2013-04-17 13:22:00,
2013-04-17 09:32:00,69.0,67.0,30.21,WNW,290,0.0,1.0,94,0.00,,,0.01,,2013-04-17 13:32:00,
2013-04-17 09:42:00,69.0,67.0,30.21,WNW,290,0.0,1.0,94,0.00,,,0.01,,2013-04-17 13:42:00,
2013-04-17 09:52:00,70.0,67.0,30.20,WNW,290,0.0,1.0,90,0.00,,,0.01,,2013-04-17 13:52:00,
2013-04-17 10:02:00,71.0,66.0,30.20,NE,49,0.0,2.0,84,0.00,,,0.01,,2013-04-17 14:02:00,
2013-04-17 10:12:00,71.0,66.0,30.20,NE,49,0.0,2.0,84,0.00,,,0.01,,2013-04-17 14:12:00,
2013-04-17 10:22:00,71.0,65.0,30.20,ENE,63,0.0,2.0,82,0.00,,,0.01,,2013-04-17 14:22:00,
2013-04-17 10:32:00,72.0,66.0,30.20,East,88,0.0,2.0,81,0.00,,,0.01,,2013-04-17 14:32:00,
2013-04-17 10:42:00,72.0,65.0,30.19,NE,42,0.0,3.0,80,0.00,,,0.01,,2013-04-17 14:42:00,
2013-04-17 10:52:00,72.0,65.0,30.19,NE,42,0.0,3.0,80,0.00,,,0.01,,2013-04-17 14:52:00,
2013-04-17 11:02:00,72.0,65.0,30.20,ESE,103,0.0,3.0,79,0.00,,,0.01,,2013-04-17 15:02:00,
2013-04-17 11:12:00,72.0,65.0,30.19,ESE,109,2.0,4.0,79,0.00,,,0.01,,2013-04-17 15:12:00,
2013-04-17 11:22:00,72.0,65.0,30.19,ESE,109,2.0,4.0,79,0.00,,,0.01,,2013-04-17 15:22:00,
2013-04-17 11:33:00,72.0,66.0,30.19,East,96,1.0,4.0,81,0.00,,,0.01,,2013-04-17 15:33:00,
2013-04-17 11:43:00,72.0,66.0,30.19,East,96,1.0,4.0,81,0.00,,,0.01,,2013-04-17 15:43:00,
2013-04-17 11:53:00,71.0,65.0,30.20,East,94,2.0,5.0,80,0.00,,,0.01,,2013-04-17 15:53:00,
2013-04-17 12:03:00,71.0,65.0,30.19,ESE,109,1.0,4.0,82,0.00,,,0.01,,2013-04-17 16:03:00,
2013-04-17 12:12:00,71.0,65.0,30.19,ESE,107,2.0,5.0,82,0.00,,,0.01,,2013-04-17 16:12:00,
2013-04-17 12:23:00,71.0,65.0,30.19,ESE,107,2.0,5.0,82,0.00,,,0.01,,2013-04-17 16:23:00,
2013-04-17 12:32:00,71.0,66.0,30.18,East,101,1.0,6.0,83,0.00,,,0.01,,2013-04-17 16:32:00,
2013-04-17 12:42:00,71.0,66.0,30.18,East,101,1.0,6.0,83,0.00,,,0.01,,2013-04-17 16:42:00,
2013-04-17 12:52:00,72.0,66.0,30.18,East,101,2.0,7.0,82,0.00,,,0.01,,2013-04-17 16:52:00,
2013-04-17 13:02:00,72.0,66.0,30.18,East,101,2.0,7.0,82,0.00,,,0.01,,2013-04-17 17:02:00,
2013-04-17 13:12:00,72.0,66.0,30.18,East,101,2.0,7.0,82,0.00,,,0.01,,2013-04-17 17:12:00,
2013-04-17 13:22:00,72.0,67.0,30.17,East,80,2.0,6.0,83,0.00,,,0.01,,2013-04-17 17:22:00,
2013-04-17 13:33:00,72.0,67.0,30.17,East,80,2.0,6.0,83,0.00,,,0.01,,2013-04-17 17:33:00,
2013-04-17 13:42:00,72.0,67.0,30.17,East,80,2.0,6.0,83,0.00,,,0.01,,2013-04-17 17:42:00,
2013-04-17 13:52:00,71.0,66.0,30.16,ESE,107,1.0,7.0,85,0.00,,,0.01,,2013-04-17 17:52:00,
2013-04-17 14:02:00,71.0,66.0,30.16,ESE,111,2.0,6.0,84,0.00,,,0.01,,2013-04-17 18:02:00,
2013-04-17 14:12:00,71.0,66.0,30.16,ESE,111,2.0,6.0,84,0.00,,,0.01,,2013-04-17 18:12:00,
2013-04-17 14:22:00,72.0,67.0,30.16,ESE,119,0.0,4.0,84,0.00,,,0.01,,2013-04-17 18:22:00,
2013-04-17 14:32:00,73.0,67.0,30.15,SE,144,1.0,4.0,82,0.00,,,0.01,,2013-04-17 18:32:00,
2013-04-17 14:42:00,73.0,67.0,30.15,SE,144,1.0,4.0,82,0.00,,,0.01,,2013-04-17 18:42:00,
2013-04-17 14:52:00,72.0,67.0,30.15,South,172,1.0,5.0,84,0.00,,,0.01,,2013-04-17 18:52:00,
2013-04-17 15:02:00,72.0,67.0,30.15,ESE,115,2.0,6.0,84,0.00,,,0.01,,2013-04-17 19:02:00,
2013-04-17 15:12:00,72.0,67.0,30.15,ESE,115,2.0,6.0,84,0.00,,,0.01,,2013-04-17 19:12:00,
2013-04-17 15:22:00,72.0,67.0,30.15,SSE,147,2.0,6.0,84,0.00,,,0.01,,2013-04-17 19:22:00,
2013-04-17 15:32:00,72.0,67.0,30.14,SSE,156,2.0,6.0,85,0.00,,,0.01,,2013-04-17 19:32:00,
2013-04-17 15:42:00,72.0,67.0,30.14,ESE,109,3.0,7.0,84,0.00,,,0.01,,2013-04-17 19:42:00,
2013-04-17 15:52:00,72.0,67.0,30.14,ESE,109,3.0,7.0,84,0.00,,,0.01,,2013-04-17 19:52:00,
2013-04-17 16:02:00,72.0,67.0,30.14,ESE,103,3.0,7.0,85,0.00,,,0.01,,2013-04-17 20:02:00,
2013-04-17 16:12:00,72.0,67.0,30.14,ESE,103,3.0,7.0,85,0.00,,,0.01,,2013-04-17 20:12:00,
2013-04-17 16:22:00,71.0,67.0,30.13,SE,134,3.0,7.0,86,0.00,,,0.01,,2013-04-17 20:22:00,
2013-04-17 16:32:00,71.0,67.0,30.13,SE,134,3.0,7.0,86,0.00,,,0.01,,2013-04-17 20:32:00,
2013-04-17 16:42:00,71.0,67.0,30.13,SE,134,3.0,7.0,86,0.00,,,0.01,,2013-04-17 20:42:00,
2013-04-17 16:52:00,71.0,67.0,30.13,SE,132,2.0,7.0,87,0.00,,,0.01,,2013-04-17 20:52:00,
2013-04-17 17:03:00,71.0,66.0,30.13,SSE,165,3.0,7.0,85,0.00,,,0.01,,2013-04-17 21:03:00,
2013-04-17 17:12:00,71.0,66.0,30.13,SSE,165,3.0,7.0,85,0.00,,,0.01,,2013-04-17 21:12:00,
2013-04-17 17:22:00,71.0,67.0,30.13,SE,128,2.0,5.0,88,0.00,,,0.01,,2013-04-17 21:22:00,
2013-04-17 17:33:00,71.0,67.0,30.12,SSE,159,3.0,7.0,87,0.00,,,0.01,,2013-04-17 21:33:00,
2013-04-17 17:42:00,71.0,67.0,30.12,SE,136,2.0,8.0,87,0.00,,,0.01,,2013-04-17 21:42:00,
2013-04-17 17:53:00,71.0,67.0,30.12,SE,136,2.0,8.0,87,0.00,,,0.01,,2013-04-17 21:53:00,
2013-04-17 18:02:00,71.0,67.0,30.12,ESE,121,2.0,6.0,87,0.00,,,0.01,,2013-04-17 22:02:00,
2013-04-17 18:12:00,71.0,67.0,30.12,ESE,121,2.0,6.0,87,0.00,,,0.01,,2013-04-17 22:12:00,
2013-04-17 18:22:00,70.0,66.0,30.12,SSE,150,1.0,5.0,88,0.00,,,0.01,,2013-04-17 22:22:00,
2013-04-17 18:33:00,70.0,66.0,30.13,ESE,122,3.0,4.0,88,0.00,,,0.01,,2013-04-17 22:33:00,
2013-04-17 18:42:00,70.0,66.0,30.12,SE,145,1.0,4.0,88,0.00,,,0.01,,2013-04-17 22:42:00,
2013-04-17 18:53:00,70.0,66.0,30.12,SE,145,1.0,4.0,88,0.00,,,0.01,,2013-04-17 22:53:00,
2013-04-17 19:02:00,69.0,65.0,30.12,ESE,121,1.0,4.0,88,0.00,,,0.01,,2013-04-17 23:02:00,
2013-04-17 19:12:00,69.0,65.0,30.12,ESE,122,1.0,3.0,88,0.00,,,0.01,,2013-04-17 23:12:00,
2013-04-17 19:22:00,69.0,65.0,30.12,ESE,122,1.0,3.0,88,0.00,,,0.01,,2013-04-17 23:22:00,
2013-04-17 19:32:00,69.0,66.0,30.12,SE,135,0.0,4.0,90,0.00,,,0.01,,2013-04-17 23:32:00,
2013-04-17 19:42:00,69.0,66.0,30.12,SE,136,0.0,3.0,90,0.00,,,0.01,,2013-04-17 23:42:00,
2013-04-17 19:52:00,69.0,66.0,30.12,SE,136,0.0,3.0,90,0.00,,,0.01,,2013-04-17 23:52:00,
2013-04-17 20:02:00,68.0,65.0,30.12,SE,132,2.0,6.0,91,0.00,,,0.01,,2013-04-18 00:02:00,
2013-04-17 20:12:00,68.0,65.0,30.13,SE,138,0.0,3.0,91,0.00,,,0.01,,2013-04-18 00:12:00,
2013-04-17 20:22:00,68.0,65.0,30.13,SE,138,0.0,3.0,91,0.00,,,0.01,,2013-04-18 00:22:00,
2013-04-17 20:32:00,68.0,66.0,30.14,SE,138,0.0,2.0,92,0.00,,,0.01,,2013-04-18 00:32:00,
2013-04-17 20:42:00,68.0,66.0,30.14,SE,138,0.0,2.0,92,0.00,,,0.01,,2013-04-18 00:42:00,
2013-04-17 20:52:00,68.0,66.0,30.14,SE,138,0.0,2.0,92,0.00,,,0.01,,2013-04-18 00:52:00,
2013-04-17 21:02:00,67.0,65.0,30.13,SE,138,0.0,2.0,93,0.00,,,0.01,,2013-04-18 01:02:00,
2013-04-17 21:12:00,67.0,65.0,30.14,SE,126,0.0,2.0,93,0.00,,,0.01,,2013-04-18 01:12:00,
2013-04-17 21:22:00,67.0,65.0,30.14,SE,126,0.0,2.0,93,0.00,,,0.01,,2013-04-18 01:22:00,
2013-04-17 21:32:00,67.0,65.0,30.14,SE,126,0.0,2.0,93,0.00,,,0.01,,2013-04-18 01:32:00,
2013-04-17 21:42:00,67.0,65.0,30.14,SE,126,0.0,1.0,94,0.00,,,0.01,,2013-04-18 01:42:00,
2013-04-17 21:52:00,67.0,65.0,30.14,SE,126,0.0,1.0,94,0.00,,,0.01,,2013-04-18 01:52:00,
2013-04-17 22:02:00,67.0,65.0,30.15,SE,126,0.0,2.0,94,0.00,,,0.01,,2013-04-18 02:02:00,
2013-04-17 22:12:00,67.0,65.0,30.15,SE,126,0.0,1.0,94,0.00,,,0.01,,2013-04-18 02:12:00,
2013-04-17 22:22:00,67.0,65.0,30.15,SE,126,0.0,1.0,94,0.00,,,0.01,,2013-04-18 02:22:00,
2013-04-17 22:32:00,67.0,65.0,30.15,SE,126,0.0,1.0,94,0.00,,,0.01,,2013-04-18 02:32:00,
2013-04-17 22:42:00,67.0,65.0,30.15,SE,126,0.0,1.0,94,0.00,,,0.01,,2013-04-18 02:42:00,
2013-04-17 22:52:00,67.0,65.0,30.15,SE,126,0.0,1.0,94,0.00,,,0.01,,2013-04-18 02:52:00,
2013-04-17 23:02:00,66.0,65.0,30.15,SE,126,0.0,0.0,95,0.00,,,0.01,,2013-04-18 03:02:00,
2013-04-17 23:12:00,66.0,65.0,30.14,SE,126,0.0,0.0,95,0.00,,,0.01,,2013-04-18 03:12:00,
2013-04-17 23:22:00,66.0,65.0,30.14,SE,126,0.0,0.0,95,0.00,,,0.01,,2013-04-18 03:22:00,
2013-04-17 23:33:00,66.0,65.0,30.14,SE,126,0.0,0.0,95,0.00,,,0.01,,2013-04-18 03:33:00,
2013-04-17 23:43:00,66.0,65.0,30.14,SE,126,0.0,0.0,95,0.00,,,0.01,,2013-04-18 03:43:00,
2013-04-17 23:53:00,66.0,65.0,30.14,SE,126,0.0,0.0,95,0.00,,,0.01,,2013-04-18 03:53:00,